TimePDT,TemperatureF,Dew PointF,Humidity,Sea Level PressureIn,VisibilityMPH,Wind Direction,Wind SpeedMPH,Gust SpeedMPH,PrecipitationIn,Events,Conditions,WindDirDegrees,DateUTC
12:53 AM,41.0,37.9,89,30.40,10.0,SSW,3.5,-,N/A,,Clear,210,2013-10-15 07:53:00
1:53 AM,43.0,39.0,86,30.39,10.0,SW,6.9,-,N/A,,Clear,230,2013-10-15 08:53:00
2:53 AM,39.9,37.9,93,30.39,10.0,ESE,4.6,-,N/A,,Clear,120,2013-10-15 09:53:00
3:53 AM,41.0,37.9,89,30.38,10.0,Calm,Calm,-,N/A,,Clear,0,2013-10-15 10:53:00
4:53 AM,43.0,39.0,86,30.37,10.0,SW,8.1,-,N/A,,Clear,230,2013-10-15 11:53:00
5:53 AM,44.1,39.9,85,30.37,10.0,SW,6.9,-,N/A,,Clear,220,2013-10-15 12:53:00
6:53 AM,41.0,39.0,93,30.36,10.0,Calm,Calm,-,N/A,,Clear,0,2013-10-15 13:53:00
7:53 AM,41.0,39.9,96,30.37,10.0,Calm,Calm,-,N/A,,Clear,0,2013-10-15 14:53:00
8:53 AM,46.9,43.0,86,30.36,10.0,SW,4.6,-,N/A,,Clear,220,2013-10-15 15:53:00
9:53 AM,55.9,46.9,72,30.35,10.0,Calm,Calm,-,N/A,,Clear,0,2013-10-15 16:53:00
10:53 AM,55.0,44.1,67,30.34,10.0,NE,3.5,-,N/A,,Clear,40,2013-10-15 17:53:00
11:53 AM,55.9,45.0,67,30.33,10.0,NE,4.6,-,N/A,,Clear,40,2013-10-15 18:53:00
12:53 PM,55.9,45.0,67,30.33,10.0,Variable,4.6,-,N/A,,Clear,0,2013-10-15 19:53:00
1:53 PM,59.0,46.9,64,30.29,10.0,SE,3.5,-,N/A,,Clear,130,2013-10-15 20:53:00
2:53 PM,55.9,46.0,69,30.28,10.0,NNE,6.9,-,N/A,,Clear,30,2013-10-15 21:53:00
3:53 PM,57.0,46.9,69,30.26,10.0,East,3.5,-,N/A,,Clear,90,2013-10-15 22:53:00
4:53 PM,57.0,46.0,67,30.24,10.0,Calm,Calm,-,N/A,,Clear,0,2013-10-15 23:53:00
5:53 PM,54.0,46.0,75,30.22,10.0,East,4.6,-,N/A,,Clear,90,2013-10-16 00:53:00
6:53 PM,50.0,46.0,86,30.22,10.0,Calm,Calm,-,N/A,,Clear,0,2013-10-16 01:53:00
7:53 PM,48.9,46.0,90,30.22,10.0,Calm,Calm,-,N/A,,Clear,0,2013-10-16 02:53:00
8:53 PM,48.0,45.0,89,30.22,10.0,WNW,3.5,-,N/A,,Overcast,290,2013-10-16 03:53:00
9:53 PM,46.9,45.0,93,30.22,10.0,SW,4.6,-,N/A,,Overcast,230,2013-10-16 04:53:00
10:53 PM,46.9,45.0,93,30.19,10.0,Calm,Calm,-,N/A,,Overcast,0,2013-10-16 05:53:00
11:53 PM,44.1,43.0,96,30.19,6.0,WNW,3.5,-,N/A,,Partly Cloudy,290,2013-10-16 06:53:00